Portage Glacier, AK

3:38 AM AKDT on March 28, 2017 (GMT -0800)
Portage Glacier

Weather History for PATO - October, 2013

Change the Weather History Date:

Friday, October 25, 2013

  Actual Average (PAWR) Record (PAWR)
Temperature  
Mean Temperature 40 °F -  
Max Temperature 45 °F 37 °F 50 °F (1957)
Min Temperature 35 °F 31 °F 19 °F (1985)
Degree Days  
Heating Degree Days 26    
Moisture  
Dew Point 37 °F    
Average Humidity 92    
Maximum Humidity 100    
Minimum Humidity 79    
Precipitation  
Precipitation 0.58 in - - ()
Sea Level Pressure  
Sea Level Pressure 29.95 in    
Wind  
Wind Speed 10 mph (SE)    
Max Wind Speed 16 mph    
Max Gust Speed 32 mph    
Visibility 9 miles    
Events Rain    
Averages and records for this station are not official NWS values.
T = Trace of Precipitation, MM = Missing Value Source: NWS Daily Summary

Daily Weather History Graph

Daily Weather History Graph

Search for Another Location

Airport or City:

Trip Planner

Search our weather history database for the weather conditions in past years. The results will help you decide how hot, cold, wet, or windy it might be!

Date:

Astronomy

Oct. 25, 2013 Rise Set
Actual Time 9:03 AM AKDT 6:13 PM AKDT
Civil Twilight 8:18 AM AKDT 6:58 PM AKDT
Nautical Twilight 7:28 AM AKDT 7:48 PM AKDT
Astronomical Twilight 6:39 AM AKDT 8:37 PM AKDT
Moon 11:20 PM AKDT (10/25) 3:16 PM AKDT (10/25)
Length of Visible Light 10h 40m
Length of Day
9h 10m
Waning Gibbous, 61% of the Moon is Illuminated
Oct 25
Waning Gibbous
Oct 26
Last Quarter
Nov 3
New
Nov 9
First Quarter
Nov 17
Full

Hourly Weather History & Observations

Time (AKDT) Temp. Windchill Dew Point Humidity Pressure Visibility Wind Dir Wind Speed Gust Speed Precip Events Conditions
12:49 AM 39.2 °F 31.6 °F 35.6 °F 87% 29.85 in 2.5 mi SE 12.7 mph 32.2 mph 0.15 in Rain Rain
12:53 AM 39.0 °F 30.3 °F 36.0 °F 89% 29.84 in 3.0 mi SE 16.1 mph 32.2 mph 0.16 in Rain Rain
1:53 AM 37.9 °F 29.6 °F 36.0 °F 93% 29.86 in 3.0 mi SE 13.8 mph 28.8 mph 0.16 in Rain Rain
2:53 AM 37.9 °F 30.5 °F 36.0 °F 93% 29.87 in 4.0 mi SE 11.5 mph 24.2 mph 0.13 in Rain Rain
3:53 AM 37.9 °F 29.6 °F 36.0 °F 93% 29.88 in 6.0 mi SE 13.8 mph 26.5 mph 0.07 in Rain Light Rain
4:50 AM 37.4 °F 30.3 °F 35.6 °F 93% 29.87 in 9.0 mi SE 10.4 mph 16.1 mph 0.06 in Rain Light Rain
4:53 AM 37.9 °F 30.9 °F 36.0 °F 93% 29.88 in 9.0 mi SE 10.4 mph 21.9 mph 0.06 in Rain Light Rain
5:53 AM 39.0 °F 31.4 °F 37.0 °F 93% 29.88 in 10.0 mi SE 12.7 mph 20.7 mph 0.00 in Rain Light Rain
6:53 AM 39.0 °F 34.0 °F 37.0 °F 93% 29.89 in 10.0 mi Variable 6.9 mph 19.6 mph 0.00 in   Overcast
7:53 AM 39.0 °F 34.0 °F 37.0 °F 93% 29.91 in 10.0 mi Variable 6.9 mph - 0.00 in   Overcast
8:53 AM 37.9 °F 32.7 °F 37.0 °F 97% 29.91 in 10.0 mi ESE 6.9 mph - 0.00 in   Overcast
9:53 AM 39.0 °F 34.0 °F 37.0 °F 93% 29.92 in 10.0 mi ESE 6.9 mph - N/A   Mostly Cloudy
10:53 AM 39.9 °F 35.1 °F 37.0 °F 89% 29.92 in 10.0 mi SE 6.9 mph - N/A   Mostly Cloudy
11:53 AM 39.9 °F 35.8 °F 37.9 °F 93% 29.94 in 10.0 mi East 5.8 mph - N/A   Mostly Cloudy
12:53 PM 42.1 °F 37.1 °F 37.9 °F 85% 29.94 in 10.0 mi East 8.1 mph - N/A   Overcast
1:53 PM 44.1 °F 42.5 °F 39.0 °F 82% 29.95 in 10.0 mi Variable 3.5 mph - N/A   Overcast
2:53 PM 44.1 °F - 37.9 °F 79% 29.96 in 10.0 mi Calm Calm - N/A   Overcast
3:53 PM 43.0 °F - 39.9 °F 89% 29.96 in 10.0 mi Calm Calm - N/A   Mostly Cloudy
4:53 PM 37.9 °F - 37.9 °F 100% 29.97 in 10.0 mi Calm Calm - N/A   Clear
5:53 PM 35.1 °F - 35.1 °F 100% 29.99 in 10.0 mi Calm Calm - N/A   Mostly Cloudy
6:53 PM 39.0 °F 36.8 °F 39.0 °F 100% 30.01 in 10.0 mi NW 3.5 mph - N/A   Overcast
7:53 PM 39.0 °F 32.8 °F 37.0 °F 93% 30.04 in 10.0 mi West 9.2 mph - N/A   Overcast
8:53 PM 39.0 °F 33.4 °F 37.0 °F 93% 30.07 in 10.0 mi West 8.1 mph - N/A   Clear
9:53 PM 37.0 °F 31.6 °F 36.0 °F 96% 30.09 in 10.0 mi WNW 6.9 mph - N/A   Clear
10:53 PM 37.0 °F 31.6 °F 35.1 °F 93% 30.12 in 10.0 mi West 6.9 mph - N/A   Clear
11:53 PM 37.9 °F 32.1 °F 35.1 °F 89% 30.15 in 10.0 mi WNW 8.1 mph - N/A   Clear